Location: Keewatin
(47.4004°N, 93.0827°W)
Time: 06:10:55
(UTC+00:00)

Envisat - Pass Details

Date: 11 December 2019
Orbit: 764 x 766 km, 98.1° (Epoch: 20 January)

Event Time Altitude Azimuth Distance (km) Brightness Sun altitude
Rises 00:16:42 0° 173° (S) 3,220 6.3 -18.6°
Reaches altitude 10° 00:19:01 10° 176° (S) 2,298 5.6 -18.9°
Maximum altitude 00:24:03 65° 258° (WSW) 843 3.4 -19.8°
Drops below altitude 10° 00:29:08 10° 341° (NNW) 2,315 5.6 -20.6°
Sets 00:31:28 0° 344° (NNW) 3,246 6.3 -21.0°
